SCP
0 0 0 0 0 0 1 1 1 1 1 1 1 1 0 0 0 0 0 0 0 0
0 0 0 0 1 1 1 1 1 1 1 1 1 0 0 0 0 0 0 0 0 0
0 0 0 1 1 1 1 1 1 0 0 0 1 0 0 0 0 0 0 0 0 0
0 0 1 1 1 1 1 1 1 0 0 0 0 0 0 0 0 0 0 0 0 0
0 1 1 1 1 1 1 1 1 0 1 0 0 0 0 0 0 0 0 0 0 0
1 1 1 1 1 1 1 1 1 1 1 0 0 0 0 0 0 0 0 0 0 0
2 1 1 1 1 1 1 1 1 0 0 0 0 0 0 0 0 0 0 0 0 0
3 2 2 1 1 1 1 0 0 0 0 0 0 0 0 0 0 0 0 0 0 0
2 2 1 1 1 0 0 0 0 0 0 0 0 0 0 0 0 0 0 0 0 0
1 1 0 0 0 0 0 0 0 0 0 0 0 0 0 0 0 0 0 0 0 0
1 0 0 0 0 0 0 0 0 0 0 0 0 0 0 0 0 0 0 0 0 0
0 0 0 0 0 0 0 0 0 0 0 0 0 0 0 0 0 0 0 0 0 0
0 0 0 0 0 0 0 0 0 0 0 0 0 0 0 0 0 0 0 0 0 -0
0 0 0 0 0 0 0 0 0 0 0 0 0 0 0 0 0 0 0 0 0 -0
Wind_Speed_500mb
70 84 81 73 67 66 62 49 44 39 38 42 40 40 34 34 38 36 33 33 32 30
75 77 76 72 69 70 57 50 35 30 40 41 38 32 36 36 36 34 34 28 29 26
80 77 75 74 70 67 58 48 37 37 43 39 37 34 39 36 35 34 31 28 29 28
89 82 74 71 63 60 53 45 43 42 43 40 38 41 40 36 29 29 29 29 29 27
83 76 63 54 48 45 48 46 46 44 45 40 43 43 36 35 30 27 27 27 28 27
60 55 51 46 42 48 50 46 47 47 46 46 40 37 35 25 22 23 20 23 25 27
56 54 47 41 46 50 46 49 50 49 51 46 38 30 25 25 25 21 19 20 23 27
53 45 40 45 45 45 52 52 55 53 49 41 30 26 28 27 27 25 25 25 27 29
44 43 48 52 52 53 57 57 57 53 44 38 31 27 26 26 28 28 28 30 33 33
44 50 54 55 58 62 59 61 53 43 38 36 33 30 27 26 26 25 26 28 26 28
54 57 58 60 60 67 62 50 50 40 39 35 30 28 26 22 20 20 21 22 26 25
62 65 56 61 66 62 66 51 44 44 39 31 29 25 21 20 19 18 16 16 23 24
70 59 56 65 62 55 50 48 49 39 32 27 23 23 22 21 18 16 16 15 20 23
67 61 61 61 58 55 54 46 40 34 29 24 22 21 18 16 14 13 19 21 22 22
Wind_Direction_500mb
231 232 234 241 250 255 255 260 269 260 242 237 241 240 229 219 222 227 231 240 247 240
228 234 242 249 253 254 252 253 250 239 237 236 244 247 210 223 226 219 225 239 237 237
237 242 248 251 252 254 248 243 232 231 229 235 236 224 215 225 210 217 222 228 234 239
236 244 246 248 251 248 236 233 225 225 229 228 216 204 214 208 208 212 223 232 237 241
240 240 239 236 234 228 227 222 222 223 219 206 199 205 207 201 206 219 231 234 236 229
225 226 223 223 226 220 218 218 216 214 203 195 195 197 194 206 220 230 228 231 229 227
216 216 215 225 220 210 214 207 204 192 187 188 189 196 206 210 203 207 225 232 229 231
205 205 216 208 199 196 199 194 184 180 184 183 182 185 188 200 215 227 234 237 237 237
198 204 197 183 186 187 181 178 174 171 179 179 187 199 205 222 234 235 246 249 243 237
214 200 189 187 180 176 178 169 168 169 179 190 197 199 217 223 237 245 244 241 228 216
204 185 178 179 178 172 166 173 168 177 187 186 195 209 220 230 231 230 233 231 212 220
189 168 163 169 169 171 165 169 176 180 183 197 206 216 219 216 213 223 222 218 202 201
169 163 166 163 164 167 168 170 174 178 185 199 213 203 204 201 217 215 209 185 165 173
163 158 164 165 165 164 166 170 175 183 190 197 192 199 194 193 198 191 195 179 171 171
Wind_Speed_850mb
70 84 81 73 67 66 62 49 44 39 38 42 40 40 34 34 38 36 33 33 32 30
75 77 76 72 69 70 57 50 35 30 40 41 38 32 36 36 36 34 34 28 29 26
80 77 75 74 70 67 58 48 37 37 43 39 37 34 39 36 35 34 31 28 29 28
89 82 74 71 63 60 53 45 43 42 43 40 38 41 40 36 29 29 29 29 29 27
83 76 63 54 48 45 48 46 46 44 45 40 43 43 36 35 30 27 27 27 28 27
60 55 51 46 42 48 50 46 47 47 46 46 40 37 35 25 22 23 20 23 25 27
56 54 47 41 46 50 46 49 50 49 51 46 38 30 25 25 25 21 19 20 23 27
53 45 40 45 45 45 52 52 55 53 49 41 30 26 28 27 27 25 25 25 27 29
44 43 48 52 52 53 57 57 57 53 44 38 31 27 26 26 28 28 28 30 33 33
44 50 54 55 58 62 59 61 53 43 38 36 33 30 27 26 26 25 26 28 26 28
54 57 58 60 60 67 62 50 50 40 39 35 30 28 26 22 20 20 21 22 26 25
62 65 56 61 66 62 66 51 44 44 39 31 29 25 21 20 19 18 16 16 23 24
70 59 56 65 62 55 50 48 49 39 32 27 23 23 22 21 18 16 16 15 20 23
67 61 61 61 58 55 54 46 40 34 29 24 22 21 18 16 14 13 19 21 22 22
Wind_Direction_850mb
231 232 234 241 250 255 255 260 269 260 242 237 241 240 229 219 222 227 231 240 247 240
228 234 242 249 253 254 252 253 250 239 237 236 244 247 210 223 226 219 225 239 237 237
237 242 248 251 252 254 248 243 232 231 229 235 236 224 215 225 210 217 222 228 234 239
236 244 246 248 251 248 236 233 225 225 229 228 216 204 214 208 208 212 223 232 237 241
240 240 239 236 234 228 227 222 222 223 219 206 199 205 207 201 206 219 231 234 236 229
225 226 223 223 226 220 218 218 216 214 203 195 195 197 194 206 220 230 228 231 229 227
216 216 215 225 220 210 214 207 204 192 187 188 189 196 206 210 203 207 225 232 229 231
205 205 216 208 199 196 199 194 184 180 184 183 182 185 188 200 215 227 234 237 237 237
198 204 197 183 186 187 181 178 174 171 179 179 187 199 205 222 234 235 246 249 243 237
214 200 189 187 180 176 178 169 168 169 179 190 197 199 217 223 237 245 244 241 228 216
204 185 178 179 178 172 166 173 168 177 187 186 195 209 220 230 231 230 233 231 212 220
189 168 163 169 169 171 165 169 176 180 183 197 206 216 219 216 213 223 222 218 202 201
169 163 166 163 164 167 168 170 174 178 185 199 213 203 204 201 217 215 209 185 165 173
163 158 164 165 165 164 166 170 175 183 190 197 192 199 194 193 198 191 195 179 171 171